| time (UTC) | temp F | wind direction | speed MPH | gust MPH | rain 1hr in | rain 24hr in | rain mn in | humidity % | barometer mb |
| 20260506231839 | 57 | 235 | 0.0 | 2.0 | 0.00 | 0.00 | 0.00 | 75 | 1020.2 |
| 20260506231345 | 57 | 61 | 0.0 | 4.0 | 0.00 | 0.00 | 0.00 | 75 | 1020.1 |
| 20260506230814 | 57 | 250 | 0.0 | 4.0 | 0.00 | 0.00 | 0.00 | 77 | 1020.1 |
| 20260506230323 | 57 | 210 | 1.0 | 4.0 | 0.00 | 0.00 | 0.00 | 74 | 1020.0 |
| 20260506225830 | 57 | 355 | 1.0 | 2.0 | 0.00 | 0.00 | 0.00 | 77 | 1020.1 |
| 20260506225316 | 57 | 314 | 0.0 | 2.0 | 0.00 | 0.00 | 0.00 | 76 | 1020.2 |
| 20260506224825 | 57 | 252 | 0.0 | 2.0 | 0.00 | 0.00 | 0.00 | 75 | 1020.2 |
| 20260506224331 | 57 | 187 | 1.0 | 2.0 | 0.00 | 0.00 | 0.00 | 75 | 1020.1 |
| 20260506223839 | 57 | 223 | 0.0 | 2.0 | 0.00 | 0.00 | 0.00 | 77 | 1020.2 |
| 20260506223324 | 57 | 251 | 1.0 | 4.0 | 0.00 | 0.00 | 0.00 | 76 | 1020.3 |
| 20260506222853 | 57 | 234 | 0.0 | 4.0 | 0.00 | 0.00 | 0.00 | 79 | 1020.2 |
| 20260506222317 | 57 | 294 | 1.0 | 4.0 | 0.00 | 0.00 | 0.00 | 77 | 1020.3 |
| 20260506221824 | 57 | 211 | 0.0 | 4.0 | 0.00 | 0.00 | 0.00 | 77 | 1020.3 |
| 20260506221315 | 57 | 213 | 1.0 | 4.0 | 0.00 | 0.00 | 0.00 | 77 | 1020.4 |
| 20260506220821 | 57 | 30 | 1.0 | 4.0 | 0.00 | 0.00 | 0.00 | 77 | 1020.4 |
| 20260506220327 | 57 | 238 | 0.0 | 2.0 | 0.00 | 0.00 | 0.00 | 78 | 1020.4 |
| 20260506215835 | 56 | 226 | 1.0 | 2.0 | 0.00 | 0.00 | 0.00 | 79 | 1020.4 |
| 20260506215320 | 56 | 241 | 0.0 | 2.0 | 0.00 | 0.00 | 0.00 | 80 | 1020.4 |
| 20260506214847 | 56 | 239 | 0.0 | 2.0 | 0.00 | 0.00 | 0.00 | 79 | 1020.4 |
| 20260506214331 | 56 | 325 | 1.0 | 2.0 | 0.00 | 0.00 | 0.00 | 79 | 1020.4 |
| 20260506213817 | 56 | 360 | 1.0 | 2.0 | 0.00 | 0.00 | 0.00 | 79 | 1020.4 |
| 20260506213344 | 56 | 309 | 0.0 | 1.0 | 0.00 | 0.00 | 0.00 | 83 | 1020.4 |
| 20260506212830 | 56 | 309 | 0.0 | 1.0 | 0.00 | 0.00 | 0.00 | 81 | 1020.4 |
| 20260506212317 | 56 | 330 | 0.0 | 2.0 | 0.00 | 0.00 | 0.00 | 82 | 1020.5 |
| 20260506211844 | 56 | 313 | 1.0 | 2.0 | 0.00 | 0.00 | 0.00 | 83 | 1020.5 |
| 20260506211329 | 56 | 307 | 0.0 | 2.0 | 0.00 | 0.00 | 0.00 | 82 | 1020.5 |
| 20260506210817 | 56 | 227 | 0.0 | 2.0 | 0.00 | 0.00 | 0.00 | 81 | 1020.4 |
| 20260506210328 | 56 | 271 | 0.0 | 1.0 | 0.00 | 0.00 | 0.00 | 82 | 1020.5 |
| 20260506205815 | 56 | 150 | 0.0 | 2.0 | 0.00 | 0.00 | 0.00 | 82 | 1020.4 |
| 20260506205321 | 56 | 64 | 1.0 | 2.0 | 0.00 | 0.00 | 0.00 | 80 | 1020.4 |
| 20260506204828 | 56 | 221 | 0.0 | 2.0 | 0.00 | 0.00 | 0.00 | 82 | 1020.4 |
| 20260506204316 | 56 | 229 | 0.0 | 1.0 | 0.00 | 0.00 | 0.00 | 82 | 1020.4 |
| 20260506203825 | 56 | 267 | 0.0 | 4.0 | 0.00 | 0.00 | 0.00 | 81 | 1020.4 |
| 20260506203331 | 56 | 267 | 0.0 | 4.0 | 0.00 | 0.00 | 0.00 | 81 | 1020.4 |
| 20260506202818 | 56 | 285 | 0.0 | 1.0 | 0.00 | 0.00 | 0.00 | 82 | 1020.3 |
| 20260506202324 | 56 | 277 | 0.0 | 2.0 | 0.00 | 0.00 | 0.00 | 81 | 1020.4 |
| 20260506201815 | 56 | 74 | 0.0 | 2.0 | 0.00 | 0.00 | 0.00 | 82 | 1020.3 |
| 20260506201322 | 56 | 197 | 1.0 | 4.0 | 0.00 | 0.00 | 0.00 | 81 | 1020.4 |
| 20260506200828 | 56 | 263 | 1.0 | 4.0 | 0.00 | 0.00 | 0.00 | 81 | 1020.4 |
| 20260506200335 | 56 | 220 | 2.0 | 3.0 | 0.00 | 0.00 | 0.00 | 81 | 1020.3 |
| 20260506195822 | 56 | 225 | 2.0 | 3.0 | 0.00 | 0.00 | 0.00 | 81 | 1020.3 |
| 20260506195329 | 56 | 21 | 0.0 | 4.0 | 0.00 | 0.00 | 0.00 | 82 | 1020.2 |
| 20260506194815 | 56 | 188 | 0.0 | 4.0 | 0.00 | 0.00 | 0.00 | 81 | 1020.2 |
| 20260506194343 | 56 | 184 | 0.0 | 2.0 | 0.00 | 0.00 | 0.00 | 83 | 1020.1 |
| 20260506193828 | 56 | 163 | 0.0 | 2.0 | 0.00 | 0.00 | 0.00 | 84 | 1020.1 |
| 20260506193315 | 56 | 257 | 0.0 | 5.0 | 0.00 | 0.00 | 0.00 | 84 | 1020.1 |
| 20260506192843 | 56 | 261 | 1.0 | 5.0 | 0.00 | 0.00 | 0.00 | 84 | 1020.2 |
| 20260506192329 | 56 | 43 | 0.0 | 4.0 | 0.00 | 0.00 | 0.00 | 85 | 1020.2 |
| 20260506191820 | 56 | 215 | 0.0 | 5.0 | 0.00 | 0.00 | 0.00 | 85 | 1020.1 |
| 20260506191327 | 55 | 210 | 1.0 | 5.0 | 0.00 | 0.00 | 0.00 | 88 | 1020.1 |
| 20260506190814 | 55 | 313 | 1.0 | 4.0 | 0.00 | 0.00 | 0.00 | 87 | 1020.1 |
| 20260506190320 | 55 | 216 | 1.0 | 4.0 | 0.00 | 0.00 | 0.00 | 88 | 1020.1 |
| 20260506185848 | 54 | 244 | 0.0 | 2.0 | 0.00 | 0.00 | 0.00 | 90 | 1020.1 |
| 20260506185313 | 54 | 267 | 0.0 | 2.0 | 0.00 | 0.00 | 0.00 | 90 | 1020.1 |
| 20260506184820 | 54 | 284 | 0.0 | 1.0 | 0.00 | 0.00 | 0.00 | 89 | 1020.1 |
| 20260506184327 | 54 | 282 | 0.0 | 2.0 | 0.00 | 0.00 | 0.00 | 89 | 1020.1 |
| 20260506183813 | 54 | 298 | 1.0 | 2.0 | 0.00 | 0.00 | 0.00 | 89 | 1020.1 |
| 20260506183322 | 54 | 238 | 0.0 | 1.0 | 0.00 | 0.00 | 0.00 | 90 | 1019.9 |
| 20260506182814 | 54 | 238 | 0.0 | 1.0 | 0.00 | 0.00 | 0.00 | 90 | 1019.9 |
| 20260506182323 | 54 | 236 | 0.0 | 1.0 | 0.00 | 0.00 | 0.00 | 89 | 1019.9 |
| 20260506181830 | 54 | 236 | 0.0 | 1.0 | 0.00 | 0.00 | 0.00 | 88 | 1019.9 |
| 20260506181316 | 55 | 280 | 0.0 | 1.0 | 0.00 | 0.00 | 0.00 | 88 | 1019.9 |
| 20260506180845 | 55 | 300 | 0.0 | 1.0 | 0.00 | 0.00 | 0.00 | 88 | 1020.1 |
| 20260506180330 | 55 | 250 | 0.0 | 2.0 | 0.00 | 0.00 | 0.00 | 88 | 1020.0 |
| 20260506175818 | 55 | 250 | 0.0 | 2.0 | 0.00 | 0.00 | 0.00 | 88 | 1019.8 |
| 20260506175325 | 55 | 221 | 0.0 | 1.0 | 0.00 | 0.00 | 0.00 | 88 | 1019.7 |
| 20260506174831 | 54 | 221 | 0.0 | 2.0 | 0.00 | 0.00 | 0.00 | 89 | 1019.5 |
| 20260506174318 | 54 | 335 | 0.0 | 2.0 | 0.00 | 0.00 | 0.00 | 88 | 1019.4 |
| 20260506173825 | 54 | 342 | 0.0 | 2.0 | 0.00 | 0.00 | 0.00 | 89 | 1019.5 |
| 20260506173315 | 54 | 342 | 0.0 | 2.0 | 0.00 | 0.00 | 0.00 | 90 | 1019.6 |
| 20260506172823 | 54 | 330 | 0.0 | 1.0 | 0.00 | 0.00 | 0.00 | 90 | 1019.7 |
| 20260506172329 | 54 | 209 | 0.0 | 0.0 | 0.00 | 0.00 | 0.00 | 91 | 1019.8 |
| 20260506171836 | 54 | 209 | 0.0 | 0.0 | 0.00 | 0.00 | 0.00 | 90 | 1020.0 |
| 20260506171321 | 54 | 238 | 0.0 | 0.0 | 0.00 | 0.00 | 0.00 | 90 | 1019.8 |
| 20260506170829 | 54 | 238 | 0.0 | 1.0 | 0.00 | 0.00 | 0.00 | 90 | 1019.8 |
| 20260506170315 | 54 | 238 | 0.0 | 2.0 | 0.00 | 0.00 | 0.00 | 89 | 1019.8 |
| 20260506165843 | 54 | 267 | 1.0 | 2.0 | 0.00 | 0.00 | 0.00 | 89 | 1019.8 |
| 20260506165329 | 54 | 195 | 0.0 | 4.0 | 0.00 | 0.00 | 0.00 | 89 | 1019.8 |
| 20260506164817 | 54 | 215 | 0.0 | 2.0 | 0.00 | 0.00 | 0.00 | 89 | 1019.6 |
| 20260506164323 | 54 | 195 | 0.0 | 1.0 | 0.00 | 0.00 | 0.00 | 89 | 1019.7 |
| 20260506163813 | 54 | 355 | 0.0 | 1.0 | 0.00 | 0.00 | 0.00 | 89 | 1019.6 |
| 20260506163322 | 54 | 248 | 0.0 | 2.0 | 0.00 | 0.00 | 0.00 | 89 | 1019.6 |
| 20260506162829 | 54 | 293 | 0.0 | 2.0 | 0.00 | 0.00 | 0.00 | 89 | 1019.6 |
| 20260506162337 | 54 | 252 | 0.0 | 2.0 | 0.00 | 0.00 | 0.00 | 89 | 1019.5 |
| 20260506161843 | 54 | 231 | 0.0 | 2.0 | 0.00 | 0.00 | 0.00 | 89 | 1019.3 |
| 20260506161330 | 54 | 257 | 0.0 | 2.0 | 0.00 | 0.00 | 0.00 | 89 | 1019.3 |
| 20260506160815 | 54 | 257 | 1.0 | 2.0 | 0.00 | 0.00 | 0.00 | 89 | 1019.4 |
| 20260506160323 | 54 | 267 | 0.0 | 2.0 | 0.00 | 0.00 | 0.00 | 90 | 1019.3 |
| 20260506155830 | 54 | 293 | 0.0 | 1.0 | 0.00 | 0.00 | 0.00 | 90 | 1019.2 |
| 20260506155316 | 54 | 292 | 0.0 | 0.0 | 0.00 | 0.00 | 0.00 | 89 | 1018.9 |
| 20260506154823 | 54 | 240 | 0.0 | 0.0 | 0.00 | 0.00 | 0.00 | 90 | 1019.0 |
| 20260506154313 | 54 | 240 | 0.0 | 0.0 | 0.00 | 0.00 | 0.00 | 90 | 1019.0 |
| 20260506153822 | 54 | 255 | 0.0 | 0.0 | 0.00 | 0.00 | 0.00 | 90 | 1019.2 |
| 20260506153328 | 54 | 255 | 0.0 | 0.0 | 0.00 | 0.00 | 0.00 | 90 | 1019.2 |
| 20260506152816 | 53 | 255 | 0.0 | 0.0 | 0.00 | 0.00 | 0.00 | 90 | 1019.2 |
| 20260506152324 | 53 | 255 | 0.0 | 0.0 | 0.00 | 0.00 | 0.00 | 90 | 1019.4 |
| 20260506151831 | 53 | 255 | 0.0 | 0.0 | 0.00 | 0.00 | 0.00 | 90 | 1019.4 |
| 20260506151319 | 53 | 255 | 0.0 | 0.0 | 0.00 | 0.00 | 0.00 | 90 | 1019.4 |
| 20260506150826 | 53 | 283 | 0.0 | 0.0 | 0.00 | 0.00 | 0.00 | 91 | 1019.4 |
| 20260506150352 | 53 | 222 | 0.0 | 0.0 | 0.00 | 0.00 | 0.00 | 90 | 1019.3 |
| 20260506145819 | 53 | 222 | 0.0 | 0.0 | 0.00 | 0.00 | 0.00 | 91 | 1019.1 |
| 20260506145345 | 53 | 265 | 0.0 | 0.0 | 0.00 | 0.00 | 0.00 | 91 | 1019.0 |
| 20260506144816 | 53 | 271 | 0.0 | 0.0 | 0.00 | 0.00 | 0.00 | 91 | 1019.0 |
| 20260506144345 | 53 | 259 | 0.0 | 0.0 | 0.00 | 0.00 | 0.00 | 91 | 1019.1 |
| 20260506143830 | 53 | 259 | 0.0 | 0.0 | 0.00 | 0.00 | 0.00 | 91 | 1019.1 |
| 20260506143315 | 53 | 259 | 0.0 | 0.0 | 0.00 | 0.00 | 0.00 | 91 | 1019.1 |
| 20260506142823 | 53 | 259 | 0.0 | 0.0 | 0.00 | 0.00 | 0.00 | 91 | 1019.2 |
| 20260506142330 | 53 | 259 | 0.0 | 0.0 | 0.00 | 0.00 | 0.00 | 91 | 1019.1 |
| 20260506141816 | 53 | 259 | 0.0 | 0.0 | 0.00 | 0.00 | 0.00 | 91 | 1019.0 |
| 20260506141344 | 53 | 259 | 0.0 | 0.0 | 0.00 | 0.00 | 0.00 | 91 | 1018.9 |
| 20260506140830 | 53 | 259 | 0.0 | 0.0 | 0.00 | 0.00 | 0.00 | 91 | 1018.9 |
| 20260506140317 | 53 | 259 | 0.0 | 0.0 | 0.00 | 0.00 | 0.00 | 91 | 1019.0 |
| 20260506135824 | 53 | 259 | 0.0 | 0.0 | 0.00 | 0.00 | 0.00 | 91 | 1019.1 |
| 20260506135331 | 53 | 259 | 0.0 | 0.0 | 0.00 | 0.00 | 0.00 | 91 | 1018.9 |
| 20260506134817 | 53 | 259 | 0.0 | 0.0 | 0.00 | 0.00 | 0.00 | 91 | 1019.0 |
| 20260506134323 | 53 | 259 | 0.0 | 0.0 | 0.00 | 0.00 | 0.00 | 91 | 1019.1 |
| 20260506133813 | 53 | 259 | 0.0 | 0.0 | 0.00 | 0.00 | 0.00 | 91 | 1018.9 |
| 20260506133321 | 53 | 246 | 0.0 | 2.0 | 0.00 | 0.00 | 0.00 | 91 | 1018.7 |
| 20260506132828 | 53 | 247 | 0.0 | 2.0 | 0.00 | 0.00 | 0.00 | 91 | 1018.7 |
| 20260506132314 | 53 | 268 | 0.0 | 1.0 | 0.00 | 0.00 | 0.00 | 92 | 1018.8 |
| 20260506131823 | 53 | 268 | 0.0 | 1.0 | 0.00 | 0.00 | 0.00 | 92 | 1018.7 |
| 20260506131329 | 53 | 248 | 0.0 | 0.0 | 0.00 | 0.00 | 0.00 | 92 | 1018.6 |
| 20260506130817 | 52 | 248 | 0.0 | 1.0 | 0.00 | 0.00 | 0.00 | 92 | 1018.5 |
| 20260506130323 | 52 | 248 | 0.0 | 1.0 | 0.00 | 0.00 | 0.00 | 92 | 1018.4 |
| 20260506125830 | 52 | 248 | 0.0 | 1.0 | 0.00 | 0.00 | 0.00 | 92 | 1018.5 |
| 20260506125316 | 52 | 248 | 0.0 | 0.0 | 0.00 | 0.00 | 0.00 | 92 | 1018.2 |
| 20260506124828 | 52 | 248 | 0.0 | 0.0 | 0.00 | 0.00 | 0.00 | 92 | 1018.3 |
| 20260506124315 | 52 | 248 | 0.0 | 0.0 | 0.00 | 0.00 | 0.00 | 92 | 1018.3 |
| 20260506123824 | 52 | 248 | 0.0 | 0.0 | 0.00 | 0.00 | 0.00 | 93 | 1018.4 |
| 20260506123331 | 52 | 248 | 0.0 | 0.0 | 0.00 | 0.00 | 0.00 | 93 | 1018.4 |
| 20260506122839 | 52 | 248 | 0.0 | 0.0 | 0.00 | 0.00 | 0.00 | 93 | 1018.3 |
| 20260506122325 | 52 | 248 | 0.0 | 0.0 | 0.00 | 0.00 | 0.00 | 93 | 1018.2 |
| 20260506121832 | 52 | 248 | 0.0 | 0.0 | 0.00 | 0.00 | 0.00 | 93 | 1018.2 |
| 20260506121339 | 52 | 248 | 0.0 | 0.0 | 0.00 | 0.00 | 0.00 | 93 | 1018.2 |
| 20260506120823 | 52 | 248 | 0.0 | 0.0 | 0.00 | 0.00 | 0.00 | 93 | 1018.2 |
| 20260506120331 | 52 | 248 | 0.0 | 0.0 | 0.00 | 0.00 | 0.00 | 94 | 1018.2 |
| 20260506115818 | 52 | 248 | 0.0 | 0.0 | 0.00 | 0.00 | 0.00 | 94 | 1018.2 |
| 20260506115325 | 52 | 248 | 0.0 | 0.0 | 0.00 | 0.00 | 0.00 | 94 | 1018.2 |
| 20260506114816 | 52 | 248 | 0.0 | 0.0 | 0.00 | 0.00 | 0.00 | 94 | 1018.1 |
| 20260506114344 | 52 | 248 | 0.0 | 0.0 | 0.00 | 0.00 | 0.00 | 94 | 1018.1 |
| 20260506113830 | 52 | 248 | 0.0 | 0.0 | 0.00 | 0.00 | 0.00 | 94 | 1018.1 |
| 20260506113316 | 52 | 248 | 0.0 | 0.0 | 0.00 | 0.00 | 0.00 | 94 | 1018.0 |
| 20260506112826 | 52 | 248 | 0.0 | 0.0 | 0.00 | 0.00 | 0.00 | 95 | 1017.9 |
| 20260506112332 | 52 | 248 | 0.0 | 0.0 | 0.00 | 0.00 | 0.00 | 95 | 1017.9 |
| 20260506111820 | 52 | 248 | 0.0 | 0.0 | 0.00 | 0.00 | 0.00 | 95 | 1017.8 |
| 20260506111325 | 52 | 248 | 0.0 | 0.0 | 0.00 | 0.00 | 0.00 | 95 | 1017.9 |
| 20260506110852 | 52 | 248 | 0.0 | 0.0 | 0.00 | 0.00 | 0.00 | 95 | 1017.7 |
| 20260506110338 | 52 | 248 | 0.0 | 2.0 | 0.00 | 0.00 | 0.00 | 95 | 1017.7 |
| 20260506105824 | 52 | 248 | 1.0 | 2.0 | 0.00 | 0.00 | 0.00 | 95 | 1017.7 |
| 20260506105314 | 52 | 289 | 0.0 | 1.0 | 0.00 | 0.00 | 0.00 | 95 | 1017.6 |
| 20260506104843 | 51 | 289 | 0.0 | 1.0 | 0.00 | 0.00 | 0.00 | 95 | 1017.6 |
| 20260506104327 | 51 | 289 | 0.0 | 0.0 | 0.00 | 0.00 | 0.00 | 95 | 1017.5 |
| 20260506103834 | 51 | 289 | 0.0 | 0.0 | 0.00 | 0.00 | 0.00 | 95 | 1017.5 |
| 20260506103320 | 51 | 289 | 0.0 | 0.0 | 0.00 | 0.00 | 0.00 | 95 | 1017.5 |
| 20260506102827 | 51 | 289 | 0.0 | 0.0 | 0.00 | 0.00 | 0.00 | 95 | 1017.4 |
| 20260506102313 | 50 | 289 | 0.0 | 0.0 | 0.00 | 0.00 | 0.00 | 95 | 1017.4 |
| 20260506101824 | 50 | 289 | 0.0 | 0.0 | 0.00 | 0.00 | 0.00 | 95 | 1017.4 |
| 20260506101331 | 50 | 289 | 0.0 | 0.0 | 0.00 | 0.00 | 0.00 | 95 | 1017.4 |
| 20260506100818 | 50 | 289 | 0.0 | 0.0 | 0.00 | 0.00 | 0.00 | 94 | 1017.4 |
| 20260506100324 | 50 | 289 | 0.0 | 0.0 | 0.00 | 0.00 | 0.00 | 94 | 1017.3 |
| 20260506095852 | 50 | 289 | 0.0 | 0.0 | 0.00 | 0.00 | 0.00 | 94 | 1017.3 |
| 20260506095319 | 50 | 289 | 0.0 | 0.0 | 0.00 | 0.00 | 0.00 | 94 | 1017.3 |
| 20260506094845 | 50 | 289 | 0.0 | 0.0 | 0.00 | 0.00 | 0.00 | 94 | 1017.2 |
| 20260506094315 | 50 | 289 | 0.0 | 0.0 | 0.00 | 0.00 | 0.00 | 94 | 1017.2 |
| 20260506093822 | 50 | 289 | 0.0 | 0.0 | 0.00 | 0.00 | 0.00 | 94 | 1017.1 |
| 20260506093329 | 50 | 289 | 0.0 | 0.0 | 0.00 | 0.00 | 0.00 | 94 | 1017.2 |
| 20260506092816 | 50 | 289 | 0.0 | 0.0 | 0.00 | 0.00 | 0.00 | 94 | 1017.1 |
| 20260506092324 | 50 | 289 | 0.0 | 0.0 | 0.00 | 0.00 | 0.00 | 94 | 1017.2 |
| 20260506091832 | 50 | 289 | 0.0 | 0.0 | 0.00 | 0.00 | 0.00 | 93 | 1017.1 |
| 20260506091318 | 50 | 289 | 0.0 | 0.0 | 0.00 | 0.00 | 0.00 | 93 | 1017.0 |
| 20260506090825 | 50 | 289 | 0.0 | 0.0 | 0.00 | 0.00 | 0.00 | 93 | 1017.0 |
| 20260506090331 | 50 | 289 | 0.0 | 0.0 | 0.00 | 0.00 | 0.00 | 94 | 1017.0 |
| 20260506085825 | 50 | 289 | 0.0 | 0.0 | 0.00 | 0.00 | 0.00 | 93 | 1017.0 |
| 20260506085331 | 50 | 289 | 0.0 | 0.0 | 0.00 | 0.00 | 0.00 | 93 | 1017.0 |
| 20260506084818 | 50 | 289 | 0.0 | 0.0 | 0.00 | 0.00 | 0.00 | 93 | 1016.9 |
| 20260506083813 | 50 | 289 | 0.0 | 0.0 | 0.00 | 0.00 | 0.00 | 93 | 1016.8 |
| 20260506083323 | 50 | 289 | 0.0 | 0.0 | 0.00 | 0.00 | 0.00 | 92 | 1016.8 |
| 20260506082851 | 50 | 289 | 0.0 | 0.0 | 0.00 | 0.00 | 0.00 | 92 | 1016.6 |
| 20260506082317 | 51 | 289 | 0.0 | 0.0 | 0.00 | 0.00 | 0.00 | 93 | 1016.6 |
| 20260506081824 | 51 | 289 | 0.0 | 0.0 | 0.00 | 0.00 | 0.00 | 93 | 1016.6 |
| 20260506081331 | 51 | 289 | 0.0 | 0.0 | 0.00 | 0.00 | 0.00 | 93 | 1016.5 |
| 20260506080821 | 51 | 289 | 0.0 | 0.0 | 0.00 | 0.00 | 0.00 | 93 | 1016.5 |
| 20260506080329 | 51 | 289 | 0.0 | 0.0 | 0.00 | 0.00 | 0.00 | 93 | 1016.5 |
| 20260506073330 | 51 | 289 | 0.0 | 0.0 | 0.00 | 0.00 | 0.00 | 92 | 1016.4 |
| 20260506072817 | 51 | 289 | 0.0 | 0.0 | 0.00 | 0.00 | 0.00 | 93 | 1016.3 |
| 20260506072324 | 51 | 289 | 0.0 | 0.0 | 0.00 | 0.00 | 0.00 | 92 | 1016.3 |
| 20260506071851 | 51 | 289 | 0.0 | 0.0 | 0.00 | 0.00 | 0.00 | 92 | 1016.3 |
| 20260506071337 | 52 | 289 | 0.0 | 0.0 | 0.00 | 0.00 | 0.00 | 92 | 1016.3 |
| 20260506070827 | 52 | 289 | 0.0 | 0.0 | 0.00 | 0.00 | 0.00 | 92 | 1016.3 |
| 20260506070314 | 52 | 289 | 0.0 | 0.0 | 0.00 | 0.00 | 0.00 | 92 | 1016.3 |
| 20260506062330 | 52 | 289 | 0.0 | 0.0 | 0.00 | 0.00 | 0.00 | 91 | 1016.1 |
| 20260506061822 | 52 | 289 | 0.0 | 0.0 | 0.00 | 0.00 | 0.00 | 91 | 1016.0 |
| 20260506061328 | 52 | 289 | 0.0 | 0.0 | 0.00 | 0.00 | 0.00 | 91 | 1016.0 |
| 20260506060815 | 52 | 289 | 0.0 | 0.0 | 0.00 | 0.00 | 0.00 | 91 | 1016.0 |
| 20260506060325 | 53 | 289 | 0.0 | 0.0 | 0.00 | 0.00 | 0.00 | 91 | 1015.9 |
| 20260506051316 | 54 | 289 | 0.0 | 0.0 | 0.00 | 0.00 | 0.00 | 89 | 1015.4 |
| 20260506050844 | 54 | 289 | 0.0 | 0.0 | 0.00 | 0.00 | 0.00 | 89 | 1015.3 |
| 20260506050331 | 54 | 289 | 0.0 | 0.0 | 0.00 | 0.00 | 0.00 | 88 | 1015.3 |
| 20260506044852 | 55 | 289 | 0.0 | 0.0 | 0.00 | 0.00 | 0.00 | 88 | 1015.2 |
| 20260506044338 | 55 | 289 | 0.0 | 0.0 | 0.00 | 0.00 | 0.00 | 87 | 1015.2 |
| 20260506043823 | 55 | 289 | 0.0 | 0.0 | 0.00 | 0.00 | 0.00 | 87 | 1015.2 |
| 20260506043329 | 55 | 289 | 0.0 | 0.0 | 0.00 | 0.00 | 0.00 | 87 | 1015.1 |
| 20260506042817 | 55 | 289 | 0.0 | 0.0 | 0.00 | 0.00 | 0.00 | 86 | 1015.1 |
| 20260506042324 | 56 | 289 | 0.0 | 0.0 | 0.00 | 0.00 | 0.00 | 86 | 1015.2 |
| 20260506041815 | 56 | 289 | 0.0 | 0.0 | 0.00 | 0.00 | 0.00 | 86 | 1015.1 |
| 20260506041323 | 56 | 289 | 0.0 | 0.0 | 0.00 | 0.00 | 0.00 | 86 | 1015.0 |
| 20260506040829 | 56 | 289 | 0.0 | 0.0 | 0.00 | 0.00 | 0.00 | 85 | 1015.0 |
| 20260506040315 | 56 | 289 | 0.0 | 0.0 | 0.00 | 0.00 | 0.00 | 85 | 1015.0 |
| 20260506035824 | 57 | 289 | 0.0 | 0.0 | 0.00 | 0.00 | 0.00 | 84 | 1015.0 |
| 20260506035331 | 57 | 289 | 0.0 | 0.0 | 0.00 | 0.00 | 0.00 | 84 | 1015.0 |
| 20260506034817 | 57 | 289 | 0.0 | 0.0 | 0.00 | 0.00 | 0.00 | 83 | 1015.0 |
| 20260506034323 | 57 | 289 | 0.0 | 0.0 | 0.00 | 0.00 | 0.00 | 83 | 1015.0 |
| 20260506033831 | 58 | 289 | 0.0 | 0.0 | 0.00 | 0.00 | 0.00 | 82 | 1015.0 |
| 20260506033339 | 58 | 289 | 0.0 | 0.0 | 0.00 | 0.00 | 0.00 | 82 | 1014.9 |
| 20260506032830 | 58 | 289 | 0.0 | 0.0 | 0.00 | 0.00 | 0.00 | 82 | 1014.8 |
| 20260506032335 | 59 | 289 | 0.0 | 0.0 | 0.00 | 0.00 | 0.00 | 82 | 1014.8 |
| 20260506031821 | 59 | 289 | 0.0 | 0.0 | 0.00 | 0.00 | 0.00 | 81 | 1014.8 |
| 20260506031328 | 59 | 289 | 0.0 | 0.0 | 0.00 | 0.00 | 0.00 | 80 | 1014.7 |
| 20260506030816 | 59 | 289 | 0.0 | 0.0 | 0.00 | 0.00 | 0.00 | 80 | 1014.7 |
| 20260506030345 | 60 | 289 | 0.0 | 0.0 | 0.00 | 0.00 | 0.00 | 79 | 1014.6 |
| 20260506025831 | 60 | 289 | 0.0 | 0.0 | 0.00 | 0.00 | 0.00 | 78 | 1014.6 |
| 20260506025319 | 60 | 289 | 0.0 | 0.0 | 0.00 | 0.00 | 0.00 | 78 | 1014.6 |
| 20260506024825 | 60 | 289 | 0.0 | 0.0 | 0.00 | 0.00 | 0.00 | 77 | 1014.7 |
| 20260506024351 | 60 | 289 | 0.0 | 0.0 | 0.00 | 0.00 | 0.00 | 77 | 1014.7 |
| 20260506023816 | 61 | 289 | 0.0 | 0.0 | 0.00 | 0.00 | 0.00 | 76 | 1014.6 |
| 20260506023323 | 61 | 289 | 0.0 | 0.0 | 0.00 | 0.00 | 0.00 | 76 | 1014.6 |
| 20260506022815 | 61 | 289 | 0.0 | 0.0 | 0.00 | 0.00 | 0.00 | 75 | 1014.6 |
| 20260506022321 | 61 | 289 | 0.0 | 0.0 | 0.00 | 0.00 | 0.00 | 75 | 1014.6 |
| 20260506021828 | 61 | 289 | 0.0 | 0.0 | 0.00 | 0.00 | 0.00 | 75 | 1014.5 |
| 20260506021315 | 62 | 289 | 0.0 | 0.0 | 0.00 | 0.00 | 0.00 | 75 | 1014.5 |
| 20260506020822 | 62 | 289 | 0.0 | 0.0 | 0.00 | 0.00 | 0.00 | 75 | 1014.4 |
| 20260506020349 | 62 | 289 | 0.0 | 0.0 | 0.00 | 0.00 | 0.00 | 74 | 1014.5 |
| 20260506015815 | 62 | 289 | 0.0 | 0.0 | 0.00 | 0.00 | 0.00 | 74 | 1014.5 |
| 20260506015343 | 62 | 289 | 0.0 | 1.0 | 0.00 | 0.00 | 0.00 | 73 | 1014.4 |
| 20260506014849 | 62 | 289 | 0.0 | 1.0 | 0.00 | 0.00 | 0.00 | 72 | 1014.4 |
| 20260506014313 | 63 | 328 | 0.0 | 1.0 | 0.00 | 0.00 | 0.00 | 71 | 1014.4 |
| 20260506013823 | 63 | 36 | 0.0 | 1.0 | 0.00 | 0.00 | 0.00 | 72 | 1014.5 |
| 20260506013330 | 63 | 70 | 0.0 | 1.0 | 0.00 | 0.00 | 0.00 | 72 | 1014.5 |
| 20260506012823 | 63 | 250 | 0.0 | 0.0 | 0.00 | 0.00 | 0.00 | 71 | 1014.6 |
| 20260506012330 | 63 | 250 | 0.0 | 0.0 | 0.00 | 0.00 | 0.00 | 70 | 1014.6 |
| 20260506011836 | 63 | 254 | 0.0 | 0.0 | 0.00 | 0.00 | 0.00 | 70 | 1014.6 |
| 20260506011321 | 63 | 92 | 0.0 | 1.0 | 0.00 | 0.00 | 0.00 | 70 | 1014.6 |
| 20260506010828 | 63 | 184 | 0.0 | 2.0 | 0.00 | 0.00 | 0.00 | 72 | 1014.6 |
| 20260506010316 | 63 | 184 | 0.0 | 2.0 | 0.00 | 0.00 | 0.00 | 69 | 1014.6 |
| 20260506005826 | 63 | 224 | 0.0 | 2.0 | 0.00 | 0.00 | 0.00 | 70 | 1014.6 |
| 20260506005353 | 63 | 288 | 1.0 | 2.0 | 0.00 | 0.00 | 0.00 | 69 | 1014.7 |
| 20260506004818 | 63 | 248 | 0.0 | 2.0 | 0.00 | 0.00 | 0.00 | 70 | 1014.7 |
| 20260506004326 | 63 | 236 | 0.0 | 4.0 | 0.00 | 0.00 | 0.00 | 71 | 1014.6 |
| 20260506003833 | 63 | 235 | 2.0 | 4.0 | 0.00 | 0.00 | 0.00 | 69 | 1014.6 |
| 20260506003321 | 63 | 83 | 0.0 | 2.0 | 0.00 | 0.00 | 0.00 | 69 | 1014.7 |
| 20260506002813 | 63 | 337 | 1.0 | 4.0 | 0.00 | 0.00 | 0.00 | 68 | 1014.7 |
| 20260506002320 | 63 | 60 | 0.0 | 4.0 | 0.00 | 0.00 | 0.00 | 69 | 1014.7 |
| 20260506001848 | 63 | 223 | 0.0 | 5.0 | 0.00 | 0.00 | 0.00 | 69 | 1014.8 |
| 20260506001334 | 64 | 283 | 1.0 | 5.0 | 0.00 | 0.00 | 0.00 | 70 | 1014.8 |
| 20260506000820 | 64 | 198 | 0.0 | 5.0 | 0.00 | 0.00 | 0.00 | 68 | 1014.9 |
| 20260506000326 | 64 | 248 | 0.0 | 4.0 | 0.00 | 0.00 | 0.00 | 69 | 1014.9 |
| 20260505235815 | 64 | 264 | 2.0 | 4.0 | 0.00 | 0.00 | 0.00 | 70 | 1015.0 |
| 20260505235323 | 64 | 173 | 0.0 | 6.0 | 0.00 | 0.00 | 0.00 | 69 | 1015.0 |
| 20260505234849 | 64 | 238 | 2.0 | 6.0 | 0.00 | 0.00 | 0.00 | 69 | 1015.1 |
| 20260505234314 | 64 | 247 | 2.0 | 5.0 | 0.00 | 0.00 | 0.00 | 68 | 1015.1 |
| 20260505233822 | 64 | 212 | 1.0 | 5.0 | 0.00 | 0.00 | 0.00 | 68 | 1015.2 |
| 20260505233330 | 64 | 53 | 1.0 | 4.0 | 0.00 | 0.00 | 0.00 | 68 | 1015.2 |
| 20260505232819 | 64 | 195 | 1.0 | 4.0 | 0.00 | 0.00 | 0.00 | 69 | 1015.3 |
| 20260505232324 | 64 | 225 | 1.0 | 7.0 | 0.00 | 0.00 | 0.00 | 67 | 1015.3 |